Time,TemperatureF,DewpointF,PressureIn,WindDirection,WindDirectionDegrees,WindSpeedMPH,WindSpeedGustMPH,Humidity,HourlyPrecipIn,Conditions,Clouds,dailyrainin,SoftwareType,DateUTC
2013-05-11 00:01:00,58.0,50.0,30.22,ESE,102,0.0,0.0,75,0.00,,,0.00,,2013-05-11 07:01:00,
2013-05-11 00:11:00,58.0,50.0,30.22,ESE,102,0.0,0.0,75,0.00,,,0.00,,2013-05-11 07:11:00,
2013-05-11 00:21:00,57.0,51.0,30.22,NW,315,0.0,0.0,79,0.00,,,0.00,,2013-05-11 07:21:00,
2013-05-11 00:31:00,55.0,50.0,30.22,NE,50,0.0,0.0,82,0.00,,,0.00,,2013-05-11 07:31:00,
2013-05-11 00:41:00,55.0,50.0,30.22,NE,50,0.0,0.0,82,0.00,,,0.00,,2013-05-11 07:41:00,
2013-05-11 00:52:00,55.0,50.0,30.24,North,11,0.0,0.0,83,0.00,,,0.00,,2013-05-11 07:52:00,
2013-05-11 01:01:00,54.0,49.0,30.24,East,99,1.0,1.0,84,0.00,,,0.00,,2013-05-11 08:01:00,
2013-05-11 01:11:00,54.0,49.0,30.24,East,99,1.0,1.0,84,0.00,,,0.00,,2013-05-11 08:11:00,
2013-05-11 01:21:00,54.0,50.0,30.22,SSE,150,0.0,1.0,85,0.00,,,0.00,,2013-05-11 08:21:00,
2013-05-11 01:31:00,54.0,50.0,30.22,NE,55,0.0,0.0,86,0.00,,,0.00,,2013-05-11 08:31:00,
2013-05-11 01:42:00,54.0,50.0,30.22,SSE,148,0.0,0.0,86,0.00,,,0.00,,2013-05-11 08:42:00,
2013-05-11 01:52:00,54.0,50.0,30.22,SSE,148,0.0,0.0,86,0.00,,,0.00,,2013-05-11 08:52:00,
2013-05-11 02:01:00,54.0,50.0,30.22,SW,223,0.0,0.0,86,0.00,,,0.00,,2013-05-11 09:01:00,
2013-05-11 02:11:00,54.0,50.0,30.22,SW,223,0.0,0.0,86,0.00,,,0.00,,2013-05-11 09:11:00,
2013-05-11 02:21:00,55.0,51.0,30.22,WNW,298,0.0,0.0,86,0.00,,,0.00,,2013-05-11 09:21:00,
2013-05-11 02:32:00,54.0,50.0,30.22,NW,315,0.0,0.0,86,0.00,,,0.00,,2013-05-11 09:32:00,
2013-05-11 02:42:00,55.0,51.0,30.21,ENE,71,0.0,0.0,86,0.00,,,0.00,,2013-05-11 09:42:00,
2013-05-11 02:52:00,55.0,51.0,30.21,ENE,71,0.0,0.0,86,0.00,,,0.00,,2013-05-11 09:52:00,
2013-05-11 03:02:00,54.0,50.0,30.22,SSE,168,0.0,0.0,86,0.00,,,0.00,,2013-05-11 10:02:00,
2013-05-11 03:12:00,54.0,50.0,30.22,SSE,168,0.0,0.0,86,0.00,,,0.00,,2013-05-11 10:12:00,
2013-05-11 03:22:00,54.0,50.0,30.21,East,96,0.0,0.0,86,0.00,,,0.00,,2013-05-11 10:22:00,
2013-05-11 03:32:00,54.0,50.0,30.19,WNW,303,0.0,0.0,87,0.00,,,0.00,,2013-05-11 10:32:00,
2013-05-11 03:42:00,54.0,50.0,30.19,South,188,0.0,1.0,87,0.00,,,0.00,,2013-05-11 10:42:00,
2013-05-11 03:52:00,54.0,50.0,30.19,South,188,0.0,1.0,87,0.00,,,0.00,,2013-05-11 10:52:00,
2013-05-11 04:02:00,53.0,50.0,30.19,SSE,155,0.0,0.0,88,0.00,,,0.00,,2013-05-11 11:02:00,
2013-05-11 04:11:00,53.0,50.0,30.19,SSE,155,0.0,0.0,88,0.00,,,0.00,,2013-05-11 11:11:00,
2013-05-11 04:21:00,54.0,51.0,30.21,WNW,288,0.0,0.0,88,0.00,,,0.00,,2013-05-11 11:21:00,
2013-05-11 04:31:00,53.0,50.0,30.19,NW,323,0.0,0.0,88,0.00,,,0.00,,2013-05-11 11:31:00,
2013-05-11 04:42:00,52.0,49.0,30.19,SSW,194,0.0,0.0,88,0.00,,,0.00,,2013-05-11 11:42:00,
2013-05-11 04:52:00,52.0,49.0,30.19,SSW,194,0.0,0.0,88,0.00,,,0.00,,2013-05-11 11:52:00,
2013-05-11 05:01:00,53.0,50.0,30.19,WSW,252,0.0,1.0,88,0.00,,,0.00,,2013-05-11 12:01:00,
2013-05-11 05:11:00,53.0,50.0,30.19,WSW,252,0.0,1.0,88,0.00,,,0.00,,2013-05-11 12:11:00,
2013-05-11 05:21:00,54.0,51.0,30.21,North,359,0.0,0.0,88,0.00,,,0.00,,2013-05-11 12:21:00,
2013-05-11 05:31:00,53.0,50.0,30.19,ENE,62,0.0,0.0,88,0.00,,,0.00,,2013-05-11 12:31:00,
2013-05-11 05:41:00,53.0,50.0,30.19,East,81,0.0,0.0,88,0.00,,,0.00,,2013-05-11 12:41:00,
2013-05-11 05:51:00,53.0,50.0,30.19,East,81,0.0,0.0,88,0.00,,,0.00,,2013-05-11 12:51:00,
2013-05-11 06:01:00,53.0,50.0,30.19,NE,56,0.0,0.0,88,0.00,,,0.00,,2013-05-11 13:01:00,
2013-05-11 06:11:00,53.0,50.0,30.19,NE,56,0.0,0.0,88,0.00,,,0.00,,2013-05-11 13:11:00,
2013-05-11 06:21:00,53.0,50.0,30.19,SSE,156,0.0,0.0,88,0.00,,,0.00,,2013-05-11 13:21:00,
2013-05-11 06:31:00,53.0,50.0,30.16,NE,56,0.0,0.0,88,0.00,,,0.00,,2013-05-11 13:31:00,
2013-05-11 06:41:00,53.0,50.0,30.17,South,188,0.0,0.0,88,0.00,,,0.00,,2013-05-11 13:41:00,
2013-05-11 06:52:00,53.0,50.0,30.17,South,188,0.0,0.0,88,0.00,,,0.00,,2013-05-11 13:52:00,
2013-05-11 07:01:00,55.0,52.0,30.17,SW,236,0.0,0.0,88,0.00,,,0.00,,2013-05-11 14:01:00,
2013-05-11 07:11:00,55.0,52.0,30.17,SW,236,0.0,0.0,88,0.00,,,0.00,,2013-05-11 14:11:00,
2013-05-11 07:21:00,56.0,52.0,30.17,West,261,0.0,0.0,87,0.00,,,0.00,,2013-05-11 14:21:00,
2013-05-11 07:32:00,57.0,52.0,30.17,West,280,0.0,0.0,84,0.00,,,0.00,,2013-05-11 14:32:00,
2013-05-11 07:41:00,58.0,52.0,30.17,NNW,331,0.0,0.0,81,0.00,,,0.00,,2013-05-11 14:41:00,
2013-05-11 07:52:00,58.0,52.0,30.17,NNW,331,0.0,0.0,81,0.00,,,0.00,,2013-05-11 14:52:00,
2013-05-11 08:01:00,59.0,52.0,30.17,SW,236,1.0,1.0,78,0.00,,,0.00,,2013-05-11 15:01:00,
2013-05-11 08:11:00,60.0,52.0,30.17,SW,234,0.0,1.0,76,0.00,,,0.00,,2013-05-11 15:11:00,
2013-05-11 08:21:00,60.0,52.0,30.17,SW,234,0.0,1.0,76,0.00,,,0.00,,2013-05-11 15:21:00,
2013-05-11 08:32:00,61.0,52.0,30.17,West,260,0.0,2.0,72,0.00,,,0.00,,2013-05-11 15:32:00,
2013-05-11 08:42:00,64.0,53.0,30.17,WNW,294,1.0,2.0,68,0.00,,,0.00,,2013-05-11 15:42:00,
2013-05-11 08:53:00,64.0,53.0,30.17,WNW,294,1.0,2.0,68,0.00,,,0.00,,2013-05-11 15:53:00,
2013-05-11 09:02:00,68.0,52.0,30.16,SE,130,0.0,1.0,57,0.00,,,0.00,,2013-05-11 16:02:00,
2013-05-11 09:32:00,66.0,52.0,30.14,NW,319,0.0,0.0,61,0.00,,,0.00,,2013-05-11 16:32:00,
2013-05-11 09:42:00,68.0,54.0,30.16,NW,307,1.0,2.0,60,0.00,,,0.00,,2013-05-11 16:42:00,
2013-05-11 09:52:00,68.0,54.0,30.16,NW,307,1.0,2.0,60,0.00,,,0.00,,2013-05-11 16:52:00,
2013-05-11 10:02:00,72.0,56.0,30.14,West,268,2.0,3.0,57,0.00,,,0.00,,2013-05-11 17:02:00,
2013-05-11 10:31:00,73.0,56.0,30.14,West,269,1.0,5.0,56,0.00,,,0.00,,2013-05-11 17:31:00,
2013-05-11 10:41:00,74.0,57.0,30.14,West,275,2.0,6.0,55,0.00,,,0.00,,2013-05-11 17:41:00,
2013-05-11 11:01:00,74.0,57.0,30.14,WNW,291,1.0,5.0,55,0.00,,,0.00,,2013-05-11 18:01:00,
2013-05-11 11:11:00,74.0,57.0,30.14,WNW,291,1.0,5.0,55,0.00,,,0.00,,2013-05-11 18:11:00,
2013-05-11 11:21:00,76.0,57.0,30.14,WNW,293,2.0,7.0,52,0.00,,,0.00,,2013-05-11 18:21:00,
2013-05-11 11:31:00,78.0,58.0,30.14,WSW,256,2.0,4.0,50,0.00,,,0.00,,2013-05-11 18:31:00,
2013-05-11 11:41:00,79.0,59.0,30.12,WSW,257,5.0,8.0,51,0.00,,,0.00,,2013-05-11 18:41:00,
2013-05-11 12:01:00,79.0,60.0,30.12,NW,309,6.0,8.0,52,0.00,,,0.00,,2013-05-11 19:01:00,
2013-05-11 12:21:00,79.0,59.0,30.12,West,275,5.0,7.0,51,0.00,,,0.00,,2013-05-11 19:21:00,
2013-05-11 12:31:00,79.0,59.0,30.12,West,279,5.0,8.0,50,0.00,,,0.00,,2013-05-11 19:31:00,
2013-05-11 12:41:00,80.0,57.0,30.11,WNW,289,2.0,7.0,46,0.00,,,0.00,,2013-05-11 19:41:00,
2013-05-11 12:52:00,80.0,57.0,30.11,WNW,289,2.0,7.0,46,0.00,,,0.00,,2013-05-11 19:52:00,
2013-05-11 13:01:00,82.0,59.0,30.11,SW,226,1.0,7.0,45,0.00,,,0.00,,2013-05-11 20:01:00,
2013-05-11 13:11:00,82.0,59.0,30.11,SW,226,1.0,7.0,45,0.00,,,0.00,,2013-05-11 20:11:00,
2013-05-11 13:22:00,82.0,59.0,30.11,West,273,2.0,5.0,45,0.00,,,0.00,,2013-05-11 20:22:00,
2013-05-11 13:32:00,82.0,59.0,30.11,NNW,341,2.0,6.0,45,0.00,,,0.00,,2013-05-11 20:32:00,
2013-05-11 13:42:00,82.0,60.0,30.11,West,276,3.0,8.0,48,0.00,,,0.00,,2013-05-11 20:42:00,
2013-05-11 13:52:00,82.0,60.0,30.11,West,276,3.0,8.0,48,0.00,,,0.00,,2013-05-11 20:52:00,
2013-05-11 14:01:00,82.0,61.0,30.11,WNW,289,5.0,10.0,49,0.00,,,0.00,,2013-05-11 21:01:00,
2013-05-11 14:11:00,82.0,61.0,30.11,WNW,289,5.0,10.0,49,0.00,,,0.00,,2013-05-11 21:11:00,
2013-05-11 14:21:00,81.0,60.0,30.11,WNW,301,4.0,8.0,49,0.00,,,0.00,,2013-05-11 21:21:00,
2013-05-11 14:33:00,82.0,61.0,30.11,West,273,7.0,11.0,50,0.00,,,0.00,,2013-05-11 21:33:00,
2013-05-11 14:43:00,82.0,61.0,30.11,West,273,7.0,11.0,50,0.00,,,0.00,,2013-05-11 21:43:00,
2013-05-11 14:52:00,84.0,62.0,30.11,WNW,287,4.0,9.0,47,0.00,,,0.00,,2013-05-11 21:52:00,
2013-05-11 15:02:00,83.0,61.0,30.11,NW,305,4.0,10.0,47,0.00,,,0.00,,2013-05-11 22:02:00,
2013-05-11 15:12:00,83.0,61.0,30.11,NW,305,4.0,10.0,47,0.00,,,0.00,,2013-05-11 22:12:00,
2013-05-11 15:22:00,83.0,61.0,30.11,NW,304,4.0,10.0,47,0.00,,,0.00,,2013-05-11 22:22:00,
2013-05-11 15:32:00,85.0,61.0,30.09,WNW,283,5.0,7.0,44,0.00,,,0.00,,2013-05-11 22:32:00,
2013-05-11 15:42:00,85.0,61.0,30.09,WNW,283,5.0,7.0,44,0.00,,,0.00,,2013-05-11 22:42:00,
2013-05-11 15:52:00,84.0,58.0,30.09,NW,310,3.0,7.0,42,0.00,,,0.00,,2013-05-11 22:52:00,
2013-05-11 16:02:00,85.0,58.0,30.09,North,351,2.0,6.0,40,0.00,,,0.00,,2013-05-11 23:02:00,
2013-05-11 16:11:00,85.0,58.0,30.09,North,351,2.0,6.0,40,0.00,,,0.00,,2013-05-11 23:11:00,
2013-05-11 16:21:00,85.0,57.0,30.08,SW,220,2.0,6.0,38,0.00,,,0.00,,2013-05-11 23:21:00,
2013-05-11 16:31:00,86.0,56.0,30.08,NNW,329,1.0,5.0,36,0.00,,,0.00,,2013-05-11 23:31:00,
2013-05-11 16:42:00,84.0,55.0,30.08,West,279,4.0,7.0,37,0.00,,,0.00,,2013-05-11 23:42:00,
2013-05-11 16:52:00,84.0,55.0,30.08,West,279,4.0,7.0,37,0.00,,,0.00,,2013-05-11 23:52:00,
2013-05-11 17:01:00,83.0,53.0,30.08,NW,308,3.0,6.0,36,0.00,,,0.00,,2013-05-12 00:01:00,
2013-05-11 17:11:00,83.0,53.0,30.08,NW,308,3.0,6.0,36,0.00,,,0.00,,2013-05-12 00:11:00,
2013-05-11 17:21:00,84.0,53.0,30.06,West,266,1.0,7.0,35,0.00,,,0.00,,2013-05-12 00:21:00,
2013-05-11 17:32:00,84.0,53.0,30.06,West,275,5.0,8.0,34,0.00,,,0.00,,2013-05-12 00:32:00,
2013-05-11 17:41:00,84.0,51.0,30.06,WNW,290,2.0,5.0,32,0.00,,,0.00,,2013-05-12 00:41:00,
2013-05-11 17:52:00,84.0,51.0,30.06,WNW,290,2.0,5.0,32,0.00,,,0.00,,2013-05-12 00:52:00,
2013-05-11 18:01:00,85.0,51.0,30.06,WNW,295,2.0,5.0,31,0.00,,,0.00,,2013-05-12 01:01:00,
2013-05-11 18:11:00,85.0,51.0,30.06,WNW,295,2.0,5.0,31,0.00,,,0.00,,2013-05-12 01:11:00,
2013-05-11 18:21:00,84.0,50.0,30.06,NNW,331,1.0,4.0,31,0.00,,,0.00,,2013-05-12 01:21:00,
2013-05-11 18:31:00,84.0,49.0,30.06,NNW,343,1.0,2.0,30,0.00,,,0.00,,2013-05-12 01:31:00,
2013-05-11 18:41:00,85.0,48.0,30.06,NNW,331,1.0,3.0,28,0.00,,,0.00,,2013-05-12 01:41:00,
2013-05-11 18:52:00,85.0,48.0,30.06,NNW,331,1.0,3.0,28,0.00,,,0.00,,2013-05-12 01:52:00,
2013-05-11 19:01:00,81.0,49.0,30.06,NW,326,0.0,4.0,33,0.00,,,0.00,,2013-05-12 02:01:00,
2013-05-11 19:11:00,81.0,49.0,30.06,NW,326,0.0,4.0,33,0.00,,,0.00,,2013-05-12 02:11:00,
2013-05-11 19:21:00,76.0,55.0,30.06,South,180,0.0,0.0,48,0.00,,,0.00,,2013-05-12 02:21:00,
2013-05-11 19:31:00,73.0,54.0,30.04,SSW,194,0.0,0.0,52,0.00,,,0.00,,2013-05-12 02:31:00,
2013-05-11 19:41:00,70.0,55.0,30.04,SE,144,0.0,0.0,60,0.00,,,0.00,,2013-05-12 02:41:00,
2013-05-11 19:52:00,70.0,55.0,30.04,SE,144,0.0,0.0,60,0.00,,,0.00,,2013-05-12 02:52:00,
2013-05-11 20:01:00,69.0,57.0,30.04,ESE,116,0.0,0.0,66,0.00,,,0.00,,2013-05-12 03:01:00,
2013-05-11 20:11:00,68.0,56.0,30.04,SE,134,0.0,0.0,65,0.00,,,0.00,,2013-05-12 03:11:00,
2013-05-11 20:21:00,68.0,56.0,30.04,SE,134,0.0,0.0,65,0.00,,,0.00,,2013-05-12 03:21:00,
2013-05-11 20:32:00,66.0,56.0,30.06,SSE,168,0.0,0.0,69,0.00,,,0.00,,2013-05-12 03:32:00,
2013-05-11 20:42:00,66.0,56.0,30.06,SSE,168,0.0,0.0,69,0.00,,,0.00,,2013-05-12 03:42:00,
2013-05-11 20:53:00,66.0,55.0,30.06,SW,217,0.0,0.0,68,0.00,,,0.00,,2013-05-12 03:53:00,
2013-05-11 21:02:00,-999.0,-99.9,30.06,SSW,202,2.0,3.0,72,0.00,,,0.00,,2013-05-12 04:02:00,
2013-05-11 21:12:00,65.0,56.0,30.06,SSW,202,2.0,3.0,72,0.00,,,0.00,,2013-05-12 04:12:00,
2013-05-11 21:22:00,68.0,57.0,30.06,SW,231,1.0,5.0,67,0.00,,,0.00,,2013-05-12 04:22:00,
2013-05-11 21:32:00,68.0,56.0,30.08,SW,214,2.0,4.0,66,0.00,,,0.00,,2013-05-12 04:32:00,
2013-05-11 21:42:00,67.0,56.0,30.09,SW,230,2.0,4.0,68,0.00,,,0.00,,2013-05-12 04:42:00,
2013-05-11 21:52:00,67.0,56.0,30.09,SW,230,2.0,4.0,68,0.00,,,0.00,,2013-05-12 04:52:00,
2013-05-11 22:02:00,67.0,56.0,30.09,SW,227,2.0,5.0,69,0.00,,,0.00,,2013-05-12 05:02:00,
2013-05-11 22:11:00,67.0,56.0,30.09,SW,227,2.0,5.0,69,0.00,,,0.00,,2013-05-12 05:11:00,
2013-05-11 22:21:00,65.0,55.0,30.09,South,189,2.0,5.0,70,0.00,,,0.00,,2013-05-12 05:21:00,
2013-05-11 22:31:00,64.0,55.0,30.09,NNW,343,1.0,3.0,73,0.00,,,0.00,,2013-05-12 05:31:00,
2013-05-11 22:42:00,64.0,55.0,30.09,NNW,343,1.0,3.0,73,0.00,,,0.00,,2013-05-12 05:42:00,
2013-05-11 22:51:00,62.0,54.0,30.09,North,10,0.0,0.0,75,0.00,,,0.00,,2013-05-12 05:51:00,
2013-05-11 23:01:00,60.0,53.0,30.09,ENE,73,0.0,1.0,79,0.00,,,0.00,,2013-05-12 06:01:00,
2013-05-11 23:11:00,60.0,53.0,30.09,ENE,73,0.0,1.0,79,0.00,,,0.00,,2013-05-12 06:11:00,
2013-05-11 23:21:00,59.0,53.0,30.09,WSW,258,0.0,0.0,81,0.00,,,0.00,,2013-05-12 06:21:00,
2013-05-11 23:31:00,58.0,53.0,30.11,East,90,0.0,0.0,83,0.00,,,0.00,,2013-05-12 06:31:00,
2013-05-11 23:41:00,57.0,52.0,30.11,SSE,158,0.0,0.0,84,0.00,,,0.00,,2013-05-12 06:41:00,